CW7615 Weather Reports


Display with metric or nautical units.
time (UTC)temp
F
wind
direction
speed
MPH
gust
MPH
rain 1hr
in
rain 24hr
in
rain mn
in
humidity
%
barometer
mb
20260509075041 57 67 3.0 5.0 0.00 0.02 0.02 90 1011.9
20260509074544 57 114 1.0 3.0 0.00 0.02 0.02 91 1012.2
20260509074040 57 114 0.0 4.0 0.00 0.02 0.02 91 1012.0
20260509073539 57 114 2.0 7.0 0.00 0.02 0.02 91 1012.0
20260509073045 57 119 4.0 12.0 0.00 0.02 0.02 90 1011.9
20260509072541 57 98 6.0 12.0 0.00 0.02 0.02 91 1012.0
20260509072036 58 170 3.0 7.0 0.00 0.02 0.02 91 1012.0
20260509071535 58 129 2.0 6.0 0.00 0.02 0.02 91 1011.8
20260509071034 58 119 2.0 7.0 0.00 0.02 0.02 92 1011.3
20260509070534 59 136 3.0 7.0 0.01 0.02 0.02 92 1011.5
20260509070033 59 123 3.0 7.0 0.01 0.02 0.02 92 1011.3
20260509065532 59 103 1.0 6.0 0.01 0.02 0.02 92 1011.1
20260509065029 59 129 2.0 6.0 0.01 0.02 0.02 92 1011.2
20260509064531 59 169 3.0 5.0 0.01 0.02 0.02 92 1011.2
20260509064029 59 140 1.0 4.0 0.01 0.02 0.02 92 1010.9
20260509063528 59 147 0.0 4.0 0.02 0.02 0.02 92 1011.1
20260509063034 59 180 0.0 0.0 0.02 0.02 0.02 92 1011.0
20260509062528 59 180 0.0 0.0 0.02 0.02 0.02 91 1010.9
20260509062028 59 180 0.0 2.0 0.02 0.02 0.02 91 1010.9
20260509061538 59 180 0.0 4.0 0.02 0.02 0.02 91 1010.9
20260509061030 59 180 1.0 8.0 0.02 0.02 0.02 91 1010.5
20260509060525 59 167 1.0 8.0 0.01 0.01 0.01 90 1010.3
20260509060026 59 169 4.0 8.0 0.01 0.01 0.01 90 1010.4
20260509055530 59 222 3.0 9.0 0.01 0.01 0.01 90 1010.2
20260509055023 59 22 1.0 12.0 0.01 0.01 0.01 90 1009.4
20260509054523 59 76 3.0 12.0 0.01 0.01 0.01 89 1009.5
20260509054023 60 16 7.0 11.0 0.01 0.01 0.01 89 1009.5
20260509053522 60 153 1.0 2.0 0.00 0.00 0.00 89 1010.2
20260509053037 60 278 0.0 3.0 0.00 0.00 0.00 88 1010.1
20260509052524 60 273 1.0 3.0 0.00 0.00 0.00 88 1010.0
20260509052021 60 342 0.0 2.0 0.00 0.00 0.00 88 1009.9
20260509051520 59 342 0.0 1.0 0.00 0.00 0.00 88 1009.7
20260509051025 59 342 0.0 2.0 0.00 0.00 0.00 88 1009.7
20260509050521 59 342 0.0 2.0 0.00 0.00 0.00 88 1009.5
20260509050021 60 342 0.0 3.0 0.00 0.00 0.00 88 1009.3
20260509045524 60 342 2.0 3.0 0.00 0.00 0.00 89 1009.2
20260509045019 60 250 0.0 2.0 0.00 0.00 0.00 89 1009.5
20260509044520 60 250 0.0 3.0 0.00 0.00 0.00 89 1009.4
20260509044020 60 252 1.0 3.0 0.00 0.00 0.00 88 1009.6
20260509043518 59 5 0.0 6.0 0.00 0.00 0.00 88 1009.5
20260509043019 60 5 2.0 9.0 0.00 0.00 0.00 89 1009.3
20260509042519 60 5 3.0 11.0 0.00 0.00 0.00 89 1009.2
20260509042018 60 5 5.0 11.0 0.00 0.00 0.00 89 1009.1
20260509041517 60 24 3.0 5.0 0.00 0.00 0.00 89 1009.6
20260509041016 60 35 2.0 4.0 0.00 0.00 0.00 89 1009.7
20260509040516 60 180 0.0 1.0 0.00 0.00 0.00 89 1010.0
20260509040016 60 180 0.0 1.0 0.00 0.00 0.00 89 1010.0
20260509035517 60 180 0.0 0.0 0.00 0.00 0.00 89 1010.1
20260509035015 60 180 0.0 0.0 0.00 0.00 0.00 89 1010.0
20260509034514 60 180 0.0 0.0 0.00 0.00 0.00 88 1010.0
20260509034015 60 180 0.0 3.0 0.00 0.00 0.00 88 1010.0
20260509033515 60 180 0.0 3.0 0.00 0.00 0.00 88 1010.0
20260509033015 60 181 0.0 2.0 0.00 0.00 0.00 88 1010.0
20260509032515 60 180 0.0 4.0 0.00 0.00 0.00 88 1010.1
20260509032020 60 180 1.0 4.0 0.00 0.00 0.00 88 1010.1
20260509031513 60 161 2.0 5.0 0.00 0.00 0.00 87 1009.9
20260509031013 60 56 0.0 2.0 0.00 0.00 0.00 87 1009.7
20260509030516 60 56 0.0 3.0 0.00 0.00 0.00 86 1009.5
20260509030013 60 56 1.0 3.0 0.00 0.00 0.00 86 1009.6
20260509025512 60 181 0.0 5.0 0.00 0.00 0.00 85 1009.8
20260509025112 60 198 0.0 5.0 0.00 0.00 0.00 85 1010.0
20260509024511 61 173 4.0 6.0 0.00 0.00 0.00 84 1010.0
20260509024013 60 46 0.0 8.0 0.00 0.00 0.00 83 1009.6
20260509023511 60 27 4.0 12.0 0.00 0.00 0.00 83 1009.3
20260509023011 60 5 8.0 12.0 0.00 0.00 0.00 84 1009.4
20260509022512 60 50 3.0 12.0 0.00 0.00 0.00 84 1009.7
20260509022008 60 325 9.0 12.0 0.00 0.00 0.00 85 1009.7
20260509021508 60 355 5.0 9.0 0.00 0.00 0.00 85 1010.1
20260509021006 60 19 2.0 8.0 0.00 0.00 0.00 86 1010.2
20260509020509 60 26 4.0 8.0 0.00 0.00 0.00 86 1010.3
20260509020006 60 327 1.0 3.0 0.00 0.00 0.00 87 1010.4
20260509015505 60 57 0.0 3.0 0.00 0.00 0.00 87 1010.6
20260509015006 60 74 0.0 2.0 0.00 0.00 0.00 87 1010.6
20260509014507 60 92 0.0 2.0 0.00 0.00 0.00 87 1010.5
20260509014003 60 92 0.0 2.0 0.00 0.00 0.00 87 1010.5
20260509013506 60 92 0.0 2.0 0.00 0.00 0.00 87 1010.5
20260509013004 60 92 1.0 2.0 0.00 0.00 0.00 87 1010.6
20260509012503 60 92 0.0 2.0 0.00 0.00 0.00 87 1010.6
20260509012003 60 92 0.0 1.0 0.00 0.00 0.00 87 1010.7
20260509011502 60 92 0.0 0.0 0.00 0.00 0.00 86 1010.7
20260509011002 60 92 0.0 0.0 0.00 0.00 0.00 86 1010.5
20260509010502 60 92 0.0 0.0 0.00 0.00 0.00 86 1010.7
20260509010100 60 92 0.0 0.0 0.00 0.00 0.00 86 1010.9
20260509010001 60 92 0.0 1.0 0.00 0.00 0.00 86 1010.9
20260509005601 60 92 0.0 2.0 0.00 0.00 0.00 86 1011.0
20260509005503 60 92 0.0 4.0 0.00 0.00 0.00 86 1011.0
20260509005059 60 92 0.0 4.0 0.00 0.00 0.00 86 1011.1
20260509004559 60 94 2.0 6.0 0.00 0.00 0.00 86 1011.3
20260509004057 61 115 3.0 8.0 0.00 0.00 0.00 86 1011.4
20260509003557 61 129 3.0 8.0 0.00 0.00 0.00 86 1011.5
20260509003103 61 111 1.0 3.0 0.00 0.00 0.00 86 1011.5
20260509002555 61 111 1.0 3.0 0.00 0.00 0.00 86 1011.7
20260509002056 61 144 0.0 0.0 0.00 0.00 0.00 86 1011.8
20260509001555 61 144 0.0 0.0 0.00 0.00 0.00 85 1011.9
20260509001055 61 144 0.0 3.0 0.00 0.00 0.00 85 1012.0
20260509000557 61 144 1.0 3.0 0.00 0.00 0.00 84 1011.9
20260509000053 61 143 1.0 3.0 0.00 0.00 0.00 83 1011.9
20260508235553 60 117 0.0 2.0 0.00 0.00 0.00 83 1012.0
20260508235053 60 24 0.0 2.0 0.00 0.00 0.00 83 1011.9
20260508234556 60 24 0.0 5.0 0.00 0.00 0.00 83 1011.8
20260508234051 60 24 2.0 6.0 0.00 0.00 0.00 84 1011.8
20260508233551 60 11 4.0 6.0 0.00 0.00 0.00 84 1011.8
20260508233102 60 5 4.0 6.0 0.00 0.00 0.00 84 1011.7
20260508232551 60 17 3.0 5.0 0.00 0.00 0.00 84 1011.8
20260508232050 60 9 1.0 5.0 0.00 0.00 0.00 84 1011.9
20260508231631 60 9 2.0 4.0 0.00 0.00 0.00 84 1011.9
20260508231050 60 28 1.0 4.0 0.00 0.00 0.00 84 1011.9
20260508230548 60 26 1.0 3.0 0.00 0.00 0.00 84 1012.0
20260508230058 60 23 1.0 5.0 0.00 0.00 0.00 84 1011.9
20260508225547 60 23 2.0 5.0 0.00 0.00 0.00 85 1012.0
20260508225047 60 346 2.0 4.0 0.00 0.00 0.00 85 1011.9
20260508224547 59 336 2.0 4.0 0.00 0.00 0.00 85 1012.0
20260508224045 59 334 1.0 4.0 0.00 0.00 0.00 85 1011.9
20260508223546 59 5 2.0 4.0 0.00 0.00 0.00 85 1012.0
20260508223047 59 5 1.0 4.0 0.00 0.00 0.00 85 1011.9
20260508222545 59 5 1.0 3.0 0.00 0.00 0.00 86 1011.8
20260508222044 59 360 2.0 3.0 0.00 0.00 0.00 86 1011.8
20260508221543 59 360 0.0 4.0 0.00 0.00 0.00 86 1011.8
20260508221044 59 355 2.0 3.0 0.00 0.00 0.00 86 1011.7
20260508220542 59 342 0.0 3.0 0.00 0.00 0.00 86 1011.8
20260508220044 59 342 0.0 3.0 0.00 0.00 0.00 86 1011.8
20260508215541 59 340 0.0 2.0 0.00 0.00 0.00 86 1011.8
20260508215041 59 340 1.0 3.0 0.00 0.00 0.00 86 1011.8
20260508214605 59 340 1.0 3.0 0.00 0.00 0.00 86 1011.8
20260508214043 59 49 0.0 0.0 0.00 0.00 0.00 86 1011.9
20260508213540 59 49 0.0 0.0 0.00 0.00 0.00 86 1011.8
20260508213047 60 49 0.0 1.0 0.00 0.00 0.00 86 1011.9
20260508212541 60 50 0.0 1.0 0.00 0.00 0.00 86 1011.9
20260508212042 60 49 0.0 2.0 0.00 0.00 0.00 86 1011.8
20260508211542 60 49 0.0 3.0 0.00 0.00 0.00 86 1011.7
20260508211039 60 50 1.0 3.0 0.00 0.00 0.00 86 1011.7
20260508210541 60 54 0.0 2.0 0.00 0.00 0.00 86 1011.7
20260508210039 60 54 0.0 2.0 0.00 0.00 0.00 86 1011.7
20260508205538 60 54 0.0 2.0 0.00 0.00 0.00 85 1011.9
20260508205038 60 54 0.0 1.0 0.00 0.00 0.00 85 1011.7
20260508204538 60 54 0.0 1.0 0.00 0.00 0.00 85 1011.7
20260508204037 60 54 0.0 0.0 0.00 0.00 0.00 85 1011.5
20260508203539 60 54 0.0 0.0 0.00 0.00 0.00 85 1011.5
20260508203038 60 54 0.0 0.0 0.00 0.00 0.00 85 1011.5
20260508202536 60 54 0.0 0.0 0.00 0.00 0.00 85 1011.5
20260508202036 60 54 0.0 2.0 0.00 0.00 0.00 85 1011.6
20260508201537 61 54 0.0 3.0 0.00 0.00 0.00 85 1011.5
20260508201036 61 54 1.0 3.0 0.00 0.00 0.00 85 1011.6
20260508200536 61 54 1.0 3.0 0.00 0.00 0.00 84 1011.6
20260508200036 61 109 0.0 0.0 0.00 0.00 0.00 84 1011.5
20260508195536 61 109 0.0 0.0 0.00 0.00 0.00 84 1011.5
20260508195036 61 109 0.0 0.0 0.00 0.00 0.00 84 1011.4
20260508194535 61 109 0.0 0.0 0.00 0.00 0.00 84 1011.4
20260508194035 61 109 0.0 0.0 0.00 0.00 0.00 83 1011.4
20260508193539 61 109 0.0 1.0 0.00 0.00 0.00 83 1011.3
20260508193044 61 109 0.0 3.0 0.00 0.00 0.00 83 1011.4
20260508192535 61 109 1.0 7.0 0.00 0.00 0.00 83 1011.4
20260508192035 61 108 3.0 7.0 0.00 0.00 0.00 83 1011.4
20260508191539 61 121 3.0 7.0 0.00 0.00 0.00 83 1011.4
20260508191034 61 119 2.0 8.0 0.00 0.00 0.00 84 1011.3
20260508190537 61 110 4.0 9.0 0.00 0.00 0.00 84 1011.3
20260508190035 61 117 4.0 9.0 0.00 0.00 0.00 84 1011.5
20260508185533 61 144 3.0 9.0 0.00 0.00 0.00 84 1011.6
20260508185036 61 136 4.0 11.0 0.00 0.00 0.00 84 1011.5
20260508184533 61 115 5.0 10.0 0.00 0.00 0.00 84 1011.3
20260508184034 61 140 5.0 13.0 0.00 0.00 0.00 84 1011.4
20260508183532 61 144 6.0 13.0 0.00 0.00 0.00 84 1011.5
20260508183034 61 122 4.0 10.0 0.00 0.00 0.00 84 1011.4
20260508182533 61 138 6.0 12.0 0.00 0.00 0.00 83 1011.3
20260508182032 62 124 7.0 12.0 0.00 0.00 0.00 83 1011.3
20260508181532 62 140 6.0 11.0 0.00 0.00 0.00 82 1011.3
20260508181032 62 114 5.0 11.0 0.00 0.00 0.00 81 1011.3
20260508180532 62 144 6.0 12.0 0.00 0.00 0.00 81 1011.4
20260508180034 62 133 5.0 12.0 0.00 0.00 0.00 80 1011.3
20260508175531 62 136 7.0 12.0 0.00 0.00 0.00 79 1011.4
20260508175032 62 159 6.0 12.0 0.00 0.00 0.00 79 1011.4
20260508174532 62 127 5.0 12.0 0.00 0.00 0.00 79 1011.3
20260508174030 63 127 6.0 12.0 0.00 0.00 0.00 79 1011.2
20260508173531 63 121 7.0 11.0 0.00 0.00 0.00 78 1011.2
20260508173031 64 121 5.0 9.0 0.00 0.00 0.00 77 1011.1
20260508172530 64 136 3.0 8.0 0.00 0.00 0.00 76 1011.2
20260508172030 64 171 3.0 8.0 0.00 0.00 0.00 78 1011.1
20260508171535 63 165 3.0 10.0 0.00 0.00 0.00 78 1011.1
20260508171032 63 126 6.0 11.0 0.00 0.00 0.00 76 1011.2
20260508170529 63 121 6.0 11.0 0.00 0.00 0.00 77 1011.1
20260508170029 64 140 4.0 11.0 0.00 0.00 0.00 77 1011.2
20260508165528 64 117 5.0 11.0 0.00 0.00 0.00 77 1011.2
20260508165028 64 90 4.0 11.0 0.00 0.00 0.00 76 1011.1
20260508164528 64 100 4.0 11.0 0.00 0.00 0.00 76 1011.3
20260508164028 64 132 6.0 12.0 0.00 0.00 0.00 76 1011.4
20260508163529 64 129 5.0 13.0 0.00 0.00 0.00 76 1011.5
20260508163029 65 159 5.0 12.0 0.00 0.00 0.00 75 1011.5
20260508162527 65 129 4.0 9.0 0.00 0.00 0.00 74 1011.5
20260508162027 65 98 3.0 10.0 0.00 0.00 0.00 71 1011.5
20260508161528 65 117 3.0 12.0 0.00 0.00 0.00 72 1011.4
20260508161027 65 150 5.0 11.0 0.00 0.00 0.00 72 1011.5
20260508160527 65 150 6.0 12.0 0.00 0.00 0.00 70 1011.5
20260508160026 65 62 3.0 12.0 0.00 0.00 0.00 69 1011.4
20260508155527 65 111 4.0 10.0 0.00 0.00 0.00 69 1011.4
20260508155026 65 134 4.0 10.0 0.00 0.00 0.00 68 1011.5
20260508154525 65 147 4.0 12.0 0.00 0.00 0.00 69 1011.5
20260508154025 66 107 7.0 13.0 0.00 0.00 0.00 68 1011.6
20260508153525 66 136 5.0 13.0 0.00 0.00 0.00 68 1011.5
20260508153025 66 138 5.0 12.0 0.00 0.00 0.00 67 1011.7
20260508152625 66 186 3.0 11.0 0.00 0.00 0.00 69 1011.6
20260508152028 66 138 5.0 11.0 0.00 0.00 0.00 70 1011.7
20260508151524 66 194 3.0 10.0 0.00 0.00 0.00 71 1011.5
20260508151024 66 115 3.0 10.0 0.00 0.00 0.00 71 1011.7
20260508150524 65 143 5.0 10.0 0.00 0.00 0.00 70 1011.8
20260508150025 66 167 5.0 11.0 0.00 0.00 0.00 70 1012.0
20260508145524 66 171 3.0 12.0 0.00 0.00 0.00 70 1012.0
20260508145023 66 132 5.0 12.0 0.00 0.00 0.00 69 1012.2
20260508144523 66 145 5.0 11.0 0.00 0.00 0.00 69 1012.2
20260508144023 66 107 7.0 12.0 0.00 0.00 0.00 68 1012.2
20260508143523 66 123 4.0 13.0 0.00 0.00 0.00 67 1012.4
20260508143022 66 142 6.0 13.0 0.00 0.00 0.00 67 1012.4
20260508142522 66 136 7.0 12.0 0.00 0.00 0.00 67 1012.4
20260508142022 66 188 7.0 12.0 0.00 0.00 0.00 67 1012.5
20260508141523 66 197 6.0 13.0 0.00 0.00 0.00 66 1012.4
20260508141023 66 172 5.0 12.0 0.00 0.00 0.00 67 1012.4
20260508140522 67 134 5.0 12.0 0.00 0.00 0.00 67 1012.5
20260508140021 67 157 5.0 13.0 0.00 0.00 0.00 67 1012.5
20260508135524 67 132 7.0 13.0 0.00 0.00 0.00 70 1012.6
20260508135020 67 115 8.0 14.0 0.00 0.00 0.00 71 1012.7
20260508134519 66 44 5.0 10.0 0.00 0.00 0.00 72 1012.8
20260508134019 65 165 5.0 13.0 0.00 0.00 0.00 72 1012.7
20260508133524 66 101 9.0 13.0 0.00 0.00 0.00 71 1012.7
20260508133019 66 144 3.0 12.0 0.00 0.00 0.00 72 1012.7
20260508132518 66 121 7.0 13.0 0.00 0.00 0.00 70 1012.9
20260508132019 66 115 8.0 13.0 0.00 0.00 0.00 70 1012.8
20260508131519 66 134 5.0 12.0 0.00 0.00 0.00 68 1012.8
20260508131018 66 155 6.0 15.0 0.00 0.00 0.00 68 1012.8
20260508130519 66 142 7.0 15.0 0.00 0.00 0.00 68 1012.8
20260508130020 67 148 6.0 10.0 0.00 0.00 0.00 70 1012.8
20260508125515 66 107 4.0 9.0 0.00 0.00 0.00 71 1012.7
20260508125014 65 124 5.0 15.0 0.00 0.00 0.00 71 1012.8
20260508124514 65 117 6.0 15.0 0.00 0.00 0.00 74 1012.7
20260508124014 65 150 6.0 14.0 0.00 0.00 0.00 72 1012.7
20260508123514 66 121 7.0 15.0 0.00 0.00 0.00 74 1012.7
20260508123013 65 178 5.0 15.0 0.00 0.00 0.00 75 1012.7
20260508122512 65 129 6.0 13.0 0.00 0.00 0.00 74 1012.7
20260508122013 65 121 8.0 15.0 0.00 0.00 0.00 75 1012.6
20260508121512 65 120 5.0 15.0 0.00 0.00 0.00 75 1012.7
20260508121012 65 98 6.0 14.0 0.00 0.00 0.00 73 1012.8
20260508120511 66 114 7.0 14.0 0.00 0.00 0.00 72 1012.8
20260508120026 66 129 6.0 15.0 0.00 0.00 0.00 72 1012.9
20260508115511 66 169 7.0 15.0 0.00 0.00 0.00 71 1012.9
20260508115009 66 136 8.0 15.0 0.00 0.00 0.00 70 1012.8
20260508114511 66 159 5.0 15.0 0.00 0.00 0.00 71 1012.8
20260508114009 66 144 6.0 15.0 0.00 0.00 0.00 73 1012.7
20260508113509 66 134 6.0 15.0 0.00 0.00 0.00 73 1012.8
20260508113013 66 155 6.0 11.0 0.00 0.00 0.00 73 1012.9
20260508112511 65 132 6.0 15.0 0.00 0.00 0.00 74 1012.8
20260508112007 65 128 6.0 15.0 0.00 0.00 0.00 75 1012.9
20260508111507 65 129 8.0 14.0 0.00 0.00 0.00 74 1012.8
20260508111005 65 143 5.0 11.0 0.00 0.00 0.00 75 1012.8
20260508110504 65 163 7.0 14.0 0.00 0.00 0.00 75 1012.9
20260508110004 65 117 8.0 14.0 0.00 0.00 0.00 75 1012.9
20260508105503 65 137 5.0 11.0 0.00 0.00 0.00 76 1012.8
20260508105005 64 166 6.0 15.0 0.00 0.00 0.00 75 1013.1
20260508104502 64 96 9.0 16.0 0.00 0.00 0.00 77 1013.1
20260508104002 64 106 10.0 16.0 0.00 0.00 0.00 76 1013.2
20260508103502 64 104 5.0 17.0 0.00 0.00 0.00 77 1013.6
20260508103100 64 103 8.0 17.0 0.00 0.00 0.00 77 1013.5
20260508102559 64 115 9.0 14.0 0.00 0.00 0.00 77 1013.4
20260508102101 64 130 6.0 15.0 0.00 0.00 0.00 78 1013.4
20260508101559 64 215 8.0 17.0 0.00 0.00 0.00 77 1013.3
20260508101058 64 143 8.0 18.0 0.00 0.00 0.00 78 1013.4
20260508100600 64 109 10.0 18.0 0.00 0.00 0.00 77 1013.2
20260508100057 64 128 10.0 18.0 0.00 0.00 0.00 78 1013.1
20260508095555 64 105 6.0 15.0 0.00 0.00 0.00 79 1013.1
20260508095054 64 159 8.0 15.0 0.00 0.00 0.00 80 1013.1
20260508094600 63 104 7.0 16.0 0.00 0.00 0.00 81 1013.0
20260508094053 63 111 11.0 16.0 0.00 0.00 0.00 81 1013.1
20260508093553 63 138 7.0 16.0 0.00 0.00 0.00 83 1013.0
20260508093059 62 115 10.0 16.0 0.00 0.00 0.00 83 1013.2
20260508092553 62 122 12.0 18.0 0.00 0.00 0.00 83 1013.1
20260508092051 62 120 11.0 19.0 0.00 0.00 0.00 83 1013.1
20260508091604 62 111 11.0 18.0 0.00 0.00 0.00 83 1012.9
20260508091051 63 111 10.0 18.0 0.00 0.00 0.00 84 1013.0
20260508090551 62 161 10.0 18.0 0.00 0.00 0.00 84 1012.9
20260508090057 62 130 10.0 20.0 0.00 0.00 0.00 84 1012.9
20260508085550 62 129 11.0 20.0 0.00 0.00 0.00 83 1012.8
20260508085048 63 140 10.0 19.0 0.00 0.00 0.00 82 1012.8
20260508084547 64 128 11.0 19.0 0.00 0.00 0.00 80 1012.9
20260508084046 64 138 10.0 19.0 0.00 0.00 0.00 76 1012.8
20260508083546 64 117 11.0 18.0 0.00 0.00 0.00 75 1013.0
20260508083050 64 126 11.0 15.0 0.00 0.00 0.00 73 1012.9
20260508082546 65 100 11.0 15.0 0.00 0.00 0.00 73 1012.8
20260508082042 64 87 6.0 17.0 0.00 0.00 0.00 73 1012.6
20260508081547 64 123 10.0 17.0 0.00 0.00 0.00 71 1012.7
20260508081042 64 111 9.0 15.0 0.00 0.00 0.00 70 1012.5
20260508080540 64 159 4.0 15.0 0.00 0.00 0.00 72 1012.5
20260508080043 64 130 5.0 14.0 0.00 0.00 0.00 71 1012.4
20260508075540 64 129 7.0 15.0 0.00 0.00 0.00 73 1012.4